Regional Weather Roundup
Issued by NWS Wakefield, VA

Home | Current Version | Previous Version | Text Only | Print | Product List | Glossary Off
Versions: 1 2 3 4 5 6 7 8 9 10 11 12 13 14 15 16 17 18 19 20 21 22 23 24 25 26 27 28 29 30 31 32 33 34 35 36 37 38 39 40 41 42 43 44 45 46 47 48 49 50

000
ASUS41 KAKQ 041015
RWRAKQ

REGIONAL WEATHER ROUNDUP
NATIONAL WEATHER SERVICE WAKEFIELD VA
600 AM EDT WED MAY 04 2016

Note: "fair" indicates few or no clouds below 12,000 feet with no
significant weather and/or obstructions to visibility. * = Denotes
station may not report precipitation (e.g., rain,snow,etc.),
thunder or fog.

VAZ042-051-052>054-056-041100-
NORTHERN VIRGINIA

CITY           SKY/WX    TMP DP  RH WIND       PRES   REMARKS
WASH NATIONAL  CLOUDY    55  53  93 NE7       29.74F
DULLES         CLOUDY    55  53  93 E6        29.73F
FORT BELVOIR   CLOUDY    55  54  94 VRB1      29.73S
QUANTICO       CLOUDY    58  55  90 NE5       29.73F
FREDERICKSBRG* CLOUDY    57  57 100 NE5       29.71F
STAFFORD*      CLOUDY    56  54  94 N3        29.76F FOG
WARRENTON      CLOUDY    57  52  85 E3        29.72F HAZE
CULPEPER*      CLOUDY    55  55 100 CALM      29.73F FOG
MANASSAS*      CLOUDY    55  55 100 NE5       29.72F
LEESBURG*      CLOUDY    55  55 100 E6        29.74F FOG
WINCHESTER     CLOUDY    50  50 100 SE3       29.72F FOG
FRONT ROYAL*   CLOUDY    52  52 100 CALM      29.71F
LURAY*         FOG       54  54 100 CALM      29.72F VSB 1/4
$$

VAZ048-049-060>072-079>083-041100-
CENTRAL AND SOUTH CENTRAL VIRGINIA

CITY           SKY/WX    TMP DP  RH WIND       PRES   REMARKS
RICHMOND       CLOUDY    58  57  97 N8        29.70S FOG
CHESTERFIELD*  CLOUDY    61  48  63 N5        29.71S
PETERSBURG*    LGT RAIN  62  62 100 N8        29.69F
HANOVER        CLOUDY    58  56  93 CALM      29.71F
TAPPAHANNOCK*  CLOUDY    56  56 100 N5        29.71F
QUINTON*       CLOUDY    58  58  99 N3        29.69S FOG
CHARLOTTSVILLE CLOUDY    56  54  93 VRB3      29.71F FOG
GORDONSVILLE*  CLOUDY    56  56 100 NE5       29.71F FOG
ORANGE*        CLOUDY    55  55 100 CALM      29.73F FOG
LOUISA*        CLOUDY    61  59  94 N3        29.70F FOG
BUMPASS*       CLOUDY    56  56  98 CALM      29.71S
FARMVILLE*     CLOUDY    60  60 100 CALM      29.70S
CREWE*         CLOUDY    59  59 100 N3        29.70S
FORT PICKETT*  NOT AVBL
CHASE CITY*    CLOUDY    59  57  94 N6        29.69F
CLARKSVILLE*   CLOUDY    61  61 100 CALM      29.69S
SOUTH HILL*    CLOUDY    59  59  99 N7        29.74S
LAWRENCEVILLE* CLOUDY    59  59 100 CALM      29.69S
EMPORIA*       CLOUDY    59  59 100 N5        29.70F FOG
$$

VAZ088>098-041100-
SOUTHEAST VIRGINIA

CITY           SKY/WX    TMP DP  RH WIND       PRES   REMARKS
NORFOLK        CLOUDY    57  55  93 NE12      29.69R
VIRGINIA BEACH CLOUDY    58  53  84 NE12      29.69R FOG
NORFOLK NAVAL  CLOUDY    58  56  93 NE9       29.71R
WEST POINT*    CLOUDY    56  56  98 N7        29.70F
SALUDA*        CLOUDY    55  55 100 NE5       29.69F
NEWPORT NEWS   CLOUDY    57  55  93 E9        29.69S
LANGLEY AFB    CLOUDY    57  55  94 NE17      29.69S
FORT EUSTIS    CLOUDY    57  57 100 NE6       29.68R
WILLIAMSBURG*  CLOUDY    59  57  94 CALM      29.70R
HR EXEC AP*    CLOUDY    61  57  88 E9        29.71R
FRANKLIN*      CLOUDY    61  60  96 CALM      29.69R
US460-WAKEFLD  CLOUDY    61  58  90 CALM      29.69R
$$

VAZ020-022-025-037-045-041100-
WEST CENTRAL AND SOUTHWEST VIRGINIA

CITY           SKY/WX    TMP DP  RH WIND       PRES   REMARKS
STAUNTON*      MOCLDY    52  52  99 CALM      29.75F
WAYNESBORO*    CLOUDY    53  52  96 N8        29.73F
HOT SPRINGS VA FAIR      44  44 100 W5        29.73S
LYNCHBURG      MOCLDY    53  49  86 NW3       29.73F
DANVILLE       FAIR      54  50  86 NW3       29.72S
SOUTH BOSTON*  CLOUDY    59  57  94 N3        29.70F
MARTINSVILLE   CLOUDY    51  48  89 NW5       29.76F
ROANOKE        CLOUDY    53  48  83 CALM      29.76S
BLACKSBURG     CLOUDY    49  48  95 CALM      29.79S
DUBLIN*        CLOUDY    52  48  86 W3        29.77F
MARION*        FAIR      47  44  88 W3        29.80S
HILLSVILLE*    CLOUDY    49  44  84 NW3       29.76S
RICHLANDS*     CLOUDY    48  33  57 W5        29.78F
WISE*          CLOUDY    48  45  87 CALM      29.80F
ABINGDON*      CLOUDY    53  46  76 CALM      29.78F
$$

MDZ021>025-VAZ099-100-041100-
SOUTHERN MARYLAND AND THE DELMARVA PENINSULA

CITY           SKY/WX    TMP DP  RH WIND       PRES   REMARKS
PATUXENT RIVER CLOUDY    53  50  89 NE7       29.73R
BAY BRIDGE APT NOT AVBL
LEONARDTOWN    CLOUDY    52  50  93 CALM      29.74R
DOVER          CLOUDY    50  50 100 NE8       29.74S
GEORGETOWN     CLOUDY    50  49  96 NE9       29.75R
EASTON         CLOUDY   N/A N/A N/A E7        29.77S
CAMBRIDGE      CLOUDY    50  50 100 NE3       29.72S
SALISBURY      LGT RAIN  50  50 100 NE9       29.74R FOG
OCEAN CITY     CLOUDY    51  50  96 NE9       29.74R FOG
WALLOPS ISLAND CLOUDY    52  51  97 N10       29.71F
ACCOMACK*      CLOUDY    52  41  66 NE10      29.70F HAZE
$$

NCZ012>017-030>032-041100-
NORTH CENTRAL AND EASTERN NORTH CAROLINA

CITY           SKY/WX    TMP DP  RH WIND       PRES   REMARKS
ROANOKE RAPIDS CLOUDY    61  61 100 N6        29.68S FOG
RALEIGH        PTCLDY    58  55  90 CALM      29.70S
ELIZABETH CITY CLOUDY    63  62  97 NE8       29.67S
AHOSKIE*       CLOUDY    59  58  97 N6        29.69
EDENTON*       CLOUDY    64  64 100 CALM      29.67F
CURRITUCK*     NOT AVBL
KILL DEVIL HLS CLOUDY    63  62  96 CALM      29.66F
MANTEO         NOT AVBL
CAPE HATTERAS  CLOUDY    65  64  97 CALM      29.64F
TARBORO*       FOG       58  58  98 CALM      29.68S VSB 1/2
GOLDSBORO      CLOUDY    62  62 100 W5        29.66S
WASHINGTON     PTCLDY    61  60  97 CALM      29.66F FOG
GREENVILLE     CLOUDY    63  63 100 CALM      29.71R FOG
NEW BERN       CLOUDY    63  61  93 CALM      29.67F
WILMINGTON     LGT RAIN  67  62  84 W10       29.69S
$$

VAZ048-041100-
ELSEWHERE

CITY           SKY/WX    TMP DP  RH WIND       PRES   REMARKS
HARRISBURG PA  CLOUDY    53  50  89 SE6       29.74S
BALTIMORE      CLOUDY    53  50  89 NE7       29.73F
ANNAPOLIS      CLOUDY    53  50  89 NE5       29.74F
ANDREWS AFB    CLOUDY    54  52  94 NE8       29.72S
PHILADELPHIA   CLOUDY    51  47  86 NE8       29.77F
HENDERSON NC   CLOUDY    60  60 100 N7        29.69S
GREENSBORO     MOCLDY    57  49  74 VRB3      29.72S
ROCKY MOUNT    CLOUDY    61  61 100 NW7       29.68R FOG
$$

VAZ100-041100-
MARINE

STATION/POSITION TIME  TEMP    WIND        PRES    WAVE   SWELL
                       AIR SEA DIR/SP/G            HT/PER HT/PER
                 (UTC) (F)     (DEG/KT/KT) (MB)    (FT/S) (FT/S)
BRANDYWINE LGT   0900   50      60/ 14/ 16 1007.2F
CAPE MAY NJ      0900   49 58   50/  7/ 12 1007.0F
LEWES DE         0900   51 56   60/ 14/ 16 1006.9F
15NM E FENWICK I 0950   50 51              1006.0F   5/ 6
OCEAN-CITY-INLET 0900   51 55   40/  8/ 12 1005.3F
WACHAPREAGUE VA  0900   53 63   30/  6/ 10 1006.3R
THOMAS POINT MD  1000   53 58   70/ 10/ 11 1008.1F
GOOSES REEF MD   0900   54 59   60/ 10/ 14 1007.8F   1/ 2
COVE POINT MD    0900   52      60/  9/ 11 1007.0F
SOLOMONS ISLAND  0900   53 61   30/  5/  7   N/A
BISHOPS HEAD MD  0900   53 63   40/ 11/ 15 1005.4F
PINEY POINT MD   0900           70/  6/  9   N/A
POTOMAC MD       0900   54 60   40/ 12/ 14 1005.2F   1
CAMBRIDGE MD     0900   52 62   50/ 11/ 12 1005.9F
LEWISETTA VA     0900   55 63   60/  7/ 10 1005.9F
RAPPAHANNOCK LGT 0900           20/ 15/ 17 1006.3R
STINGRAY PT      0900   56 62   60/ 12/ 14 1006.1F   2/ 3
YORK RVR RNG VA  0900   57      40/ 16/ 18 1004.7F
YORKTOWN VA      0900   57 63   30/ 10/ 12 1005.1F
JAMESTOWN VA     0900   58 67   50/  6/ 10   N/A     0
DOMINION TERM VA 0900   59      40/  8/ 13 1005.1R
KIPTOPEKE VA     0900      62   50/  9/ 17   N/A
CHES BAY BRIDGE  0900   57 62   20/ 12/ 15 1004.6F
CAPE HENRY VA    0900   55      40/ 17/ 19   N/A
CHESAPEAKE LGHT  0900   54      30/ 17/ 19 1005.7R
WILLOUBY STN VA  0900   58      30/ 13/ 14 1006.1R
CAPE HENRY BUOY  0912      58                N/A     4/ 4
CAPE CHARLES BUO 0926      58                N/A     4/ 4   2/ 8
OFFSHORE WE BUOY 0921      57                N/A     4/ 7   2/ 7
64NM E OF VA BCH 0950   55 54  280/  2/  4 1004.7S   4/ 6   3/ 6
44100 DUCK FRF   0924      61                N/A     3/ 6
44056 DUCK FRF   0911      59                N/A     2/ 8
OREGON INLET NC  0900   68 71  200/  6/  7 1004.5R
HATTERAS NC      0900   67 69  240/  4/  5 1004.1F
DIAMOND SHLS NC  0950   70 72  250/  4/  6 1003.8F   3/ 6   3/ 6
CAPE LOOKOUT NC  1000   69     230/ 10/ 12 1004.8R
$$



USA.gov is the U.S. government's official web portal to all federal, state and local government web resources and services.